ANIK F3

Last updated on Thu Dec 18 2025 00:02:47 GMT+0000 (Coordinated Universal Time)

1 31102U 07009A 25351.50555035 .00000023 00000+0 00000+0 0 9990 2 31102 0.7282 86.1494 0002526 186.5757 236.9536 1.00273293 44744
UTC large
Height (km)
Speed (km/s)
/
Latitude / Longitude
Inclination (degrees)
Orbital Period (minutes)
Azimuth
Elevation
Range (km)
Doppler Factor

Next 0 passes for location: London (51.5072 / 0.1276)

Sorry there are no passes over London.